Location: Newark
(45.2500°N, 7.5833°E)
Time: 03:14:20
(UTC+00:00)

N. Korean satellite - Pass Details

Date: 24 December 2019
Orbit: 454 x 507 km, 97.2° (Epoch: 23 January)

Event Time Altitude Azimuth Distance (km) Brightness Sun altitude
Rises 05:17:30 0° 14° (NNE) 2,497 10.2 -18.3°
Reaches altitude 10° 05:19:35 10° 16° (NNE) 1,612 9.2 -18.0°
Maximum altitude 05:23:01 71° 102° (ESE) 486 6.6 -17.4°
Drops below altitude 10° 05:26:25 10° 187° (S) 1,588 9.3 -16.8°
Sets 05:28:26 0° 189° (S) 2,455 10.2 -16.5°
